• In Hungary
  • List of Countries
  • For 7 days
  • Water Temperature
  • Satellite Maps
  • Weather Map
  • News
  • Weather Widgets
  • user-avatar
    Login

    Hourly Weather Cochabamba

    Today, 15 August, Wednesday

    Time Temperature Precipitation Wind Pressure Humidity
    00:00 +12°C° 0 mm 2 mps 556 mmHg 79%
    01:00 +12°C° 0 mm 2 mps 556 mmHg 79%
    02:00 +11°C° 0 mm 1 mps 556 mmHg 80%
    03:00 +11°C° 0.1 mm 1 mps 555 mmHg 80%
    04:00 +11°C° 0.1 mm 1 mps 555 mmHg 81%
    05:00 +10°C° 0.1 mm 1 mps 555 mmHg 81%
    06:00 +11°C° 0 mm 1 mps 556 mmHg 78%
    07:00 +11°C° 0 mm 1 mps 556 mmHg 75%
    08:00 +12°C° 0 mm 1 mps 557 mmHg 72%
    09:00 +13°C° 0 mm 1 mps 558 mmHg 65%
    10:00 +14°C° 0 mm 2 mps 558 mmHg 57%
    11:00 +15°C° 0 mm 2 mps 559 mmHg 50%
    12:00 +16°C° 0 mm 2 mps 559 mmHg 47%
    13:00 +17°C° 0 mm 2 mps 558 mmHg 45%
    14:00 +18°C° 0 mm 3 mps 558 mmHg 42%
    15:00 +17°C° 0 mm 3 mps 558 mmHg 45%
    16:00 +17°C° 0 mm 3 mps 557 mmHg 48%
    17:00 +16°C° 0 mm 3 mps 556 mmHg 51%
    18:00 +14°C° 0 mm 3 mps 556 mmHg 58%
    19:00 +14°C° 0 mm 2 mps 556 mmHg 64%
    20:00 +13°C° 0 mm 1 mps 556 mmHg 71%
    21:00 +12°C° 0 mm 1 mps 556 mmHg 73%
    22:00 +12°C° 0 mm 1 mps 557 mmHg 74%
    23:00 +10°C° 0 mm 0 mps 557 mmHg 76%

    Tomorrow, 16 August, Thursday

    Time Temperature Precipitation Wind Pressure Humidity
    00:00 +10°C° 0 mm 0 mps 556 mmHg 77%
    01:00 +9°C° 0 mm 0 mps 556 mmHg 77%
    02:00 +9°C° 0 mm 0 mps 556 mmHg 78%
    03:00 +10°C° 0 mm 1 mps 556 mmHg 77%
    04:00 +9°C° 0 mm 1 mps 555 mmHg 76%
    05:00 +9°C° 0 mm 1 mps 555 mmHg 75%
    06:00 +10°C° 0 mm 1 mps 556 mmHg 68%
    07:00 +11°C° 0 mm 1 mps 557 mmHg 60%
    08:00 +12°C° 0 mm 1 mps 558 mmHg 53%
    09:00 +14°C° 0 mm 1 mps 559 mmHg 46%
    10:00 +16°C° 0 mm 1 mps 559 mmHg 39%
    11:00 +18°C° 0 mm 1 mps 560 mmHg 31%
    12:00 +18°C° 0.1 mm 2 mps 560 mmHg 32%
    13:00 +18°C° 0.1 mm 2 mps 559 mmHg 33%
    14:00 +19°C° 0.1 mm 3 mps 559 mmHg 34%
    15:00 +18°C° 0.1 mm 3 mps 559 mmHg 38%
    16:00 +18°C° 0.1 mm 3 mps 558 mmHg 41%
    17:00 +17°C° 0.1 mm 3 mps 558 mmHg 44%
    18:00 +16°C° 0 mm 3 mps 557 mmHg 51%
    19:00 +15°C° 0 mm 2 mps 557 mmHg 58%
    20:00 +13°C° 0 mm 2 mps 557 mmHg 65%
    21:00 +13°C° 0 mm 1 mps 557 mmHg 67%
    22:00 +12°C° 0 mm 1 mps 557 mmHg 69%
    23:00 +11°C° 0 mm 1 mps 557 mmHg 71%

    Day after tomorrow, 17 August, Friday

    Time Temperature Precipitation Wind Pressure Humidity
    00:00 +11°C° 0 mm 1 mps 557 mmHg 70%
    01:00 +11°C° 0 mm 1 mps 557 mmHg 70%
    02:00 +10°C° 0 mm 1 mps 556 mmHg 69%
    03:00 +10°C° 0 mm 1 mps 556 mmHg 67%
    04:00 +10°C° 0 mm 1 mps 555 mmHg 66%
    05:00 +9°C° 0 mm 1 mps 555 mmHg 65%
    06:00 +10°C° 0 mm 1 mps 556 mmHg 58%
    07:00 +12°C° 0 mm 1 mps 557 mmHg 50%
    08:00 +13°C° 0 mm 1 mps 558 mmHg 43%
    09:00 +15°C° 0 mm 2 mps 559 mmHg 37%
    10:00 +17°C° 0 mm 2 mps 559 mmHg 32%
    11:00 +19°C° 0 mm 2 mps 560 mmHg 26%
    12:00 +19°C° 0 mm 3 mps 560 mmHg 28%
    13:00 +20°C° 0 mm 3 mps 559 mmHg 30%
    14:00 +20°C° 0 mm 3 mps 559 mmHg 32%
    15:00 +20°C° 0.1 mm 4 mps 558 mmHg 36%
    16:00 +19°C° 0.1 mm 4 mps 557 mmHg 41%
    17:00 +19°C° 0.1 mm 4 mps 557 mmHg 45%
    18:00 +17°C° 0 mm 4 mps 557 mmHg 53%
    19:00 +16°C° 0 mm 3 mps 556 mmHg 61%
    20:00 +13°C° 0 mm 3 mps 556 mmHg 68%
    21:00 +14°C° 0 mm 2 mps 556 mmHg 70%
    22:00 +13°C° 0 mm 2 mps 557 mmHg 72%
    23:00 +13°C° 0 mm 2 mps 557 mmHg 73%

    18 August, Saturday

    Time Temperature Precipitation Wind Pressure Humidity
    00:00 +12°C° 0 mm 2 mps 556 mmHg 74%
    01:00 +12°C° 0 mm 2 mps 556 mmHg 75%
    02:00 +11°C° 0 mm 1 mps 555 mmHg 75%
    03:00 +11°C° 0 mm 1 mps 555 mmHg 73%
    04:00 +9°C° 0 mm 2 mps 554 mmHg 71%
    05:00 +9°C° 0 mm 2 mps 554 mmHg 69%
    06:00 +10°C° 0 mm 2 mps 555 mmHg 60%
    07:00 +12°C° 0 mm 2 mps 556 mmHg 50%
    08:00 +13°C° 0 mm 2 mps 557 mmHg 41%
    09:00 +15°C° 0 mm 2 mps 557 mmHg 35%
    10:00 +18°C° 0 mm 2 mps 558 mmHg 29%
    11:00 +20°C° 0 mm 2 mps 559 mmHg 23%
    12:00 +20°C° 0.1 mm 3 mps 558 mmHg 26%
    13:00 +21°C° 0.1 mm 3 mps 558 mmHg 29%
    14:00 +21°C° 0.1 mm 3 mps 557 mmHg 32%
    15:00 +20°C° 0.3 mm 4 mps 557 mmHg 37%
    16:00 +20°C° 0.3 mm 4 mps 556 mmHg 42%
    17:00 +19°C° 0.3 mm 4 mps 555 mmHg 46%
    18:00 +18°C° 0.1 mm 4 mps 555 mmHg 54%
    19:00 +16°C° 0.1 mm 3 mps 555 mmHg 61%
    20:00 +14°C° 0.1 mm 3 mps 555 mmHg 69%
    21:00 +14°C° 0 mm 2 mps 555 mmHg 71%
    22:00 +14°C° 0 mm 2 mps 555 mmHg 73%
    23:00 +14°C° 0 mm 2 mps 555 mmHg 75%

    19 August, Sunday

    Time Temperature Precipitation Wind Pressure Humidity
    00:00 +13°C° 0 mm 2 mps 555 mmHg 75%
    01:00 +13°C° 0 mm 2 mps 555 mmHg 76%
    02:00 +13°C° 0 mm 1 mps 554 mmHg 77%
    03:00 +12°C° 0 mm 1 mps 554 mmHg 77%
    04:00 +12°C° 0 mm 1 mps 554 mmHg 78%
    05:00 +11°C° 0 mm 1 mps 554 mmHg 78%
    06:00 +12°C° 0 mm 1 mps 555 mmHg 74%
    07:00 +13°C° 0 mm 1 mps 556 mmHg 69%
    08:00 +14°C° 0 mm 1 mps 557 mmHg 65%
    09:00 +15°C° 0.1 mm 1 mps 557 mmHg 60%
    10:00 +16°C° 0.1 mm 2 mps 558 mmHg 55%
    11:00 +17°C° 0.1 mm 2 mps 558 mmHg 51%
    12:00 +18°C° 0.4 mm 2 mps 558 mmHg 50%
    13:00 +19°C° 0.4 mm 3 mps 557 mmHg 49%
    14:00 +19°C° 0.4 mm 3 mps 557 mmHg 49%
    15:00 +19°C° 0.6 mm 3 mps 557 mmHg 52%
    16:00 +18°C° 0.6 mm 4 mps 556 mmHg 54%
    17:00 +18°C° 0.6 mm 4 mps 556 mmHg 57%
    18:00 +17°C° 1 mm 3 mps 556 mmHg 62%
    19:00 +16°C° 1 mm 3 mps 556 mmHg 68%
    20:00 +14°C° 1 mm 3 mps 556 mmHg 73%
    21:00 +14°C° 0.9 mm 2 mps 556 mmHg 75%
    22:00 +14°C° 0.9 mm 2 mps 557 mmHg 77%
    23:00 +13°C° 0.9 mm 2 mps 557 mmHg 79%

    20 August, Monday

    Time Temperature Precipitation Wind Pressure Humidity
    00:00 +13°C° 0.5 mm 2 mps 556 mmHg 80%
    01:00 +13°C° 0.5 mm 2 mps 556 mmHg 80%
    02:00 +12°C° 0.5 mm 1 mps 556 mmHg 81%
    03:00 +12°C° 0.2 mm 1 mps 556 mmHg 82%
    04:00 +12°C° 0.2 mm 1 mps 556 mmHg 82%
    05:00 +12°C° 0.2 mm 1 mps 556 mmHg 82%
    06:00 +12°C° 0.8 mm 1 mps 557 mmHg 80%
    07:00 +12°C° 0.8 mm 1 mps 557 mmHg 78%
    08:00 +13°C° 0.8 mm 1 mps 558 mmHg 76%
    09:00 +13°C° 1.4 mm 2 mps 558 mmHg 72%
    10:00 +14°C° 1.4 mm 2 mps 559 mmHg 69%
    11:00 +15°C° 1.4 mm 2 mps 559 mmHg 66%
    12:00 +14°C° 1.2 mm 3 mps 559 mmHg 67%
    13:00 +14°C° 1.2 mm 3 mps 558 mmHg 67%
    14:00 +14°C° 1.2 mm 3 mps 557 mmHg 68%
    15:00 +14°C° 0.6 mm 3 mps 557 mmHg 67%
    16:00 +13°C° 0.6 mm 3 mps 557 mmHg 67%
    17:00 +13°C° 0.6 mm 3 mps 556 mmHg 67%
    18:00 +13°C° 0 mm 3 mps 556 mmHg 70%
    19:00 +13°C° 0 mm 2 mps 557 mmHg 73%
    20:00 +12°C° 0 mm 2 mps 557 mmHg 76%
    21:00 +12°C° 0.1 mm 2 mps 557 mmHg 76%
    22:00 +12°C° 0.1 mm 2 mps 557 mmHg 76%
    23:00 +12°C° 0.1 mm 1 mps 557 mmHg 75%
    Show more